Location: Unnamed
(48.6007°N, 2.4808°E)
Time: 08:54:24
(UTC+02:00)

PCSat - Pass Details

Date: 31 March 2023
Orbit: 783 x 794 km, 67.1° (Epoch: 29 May)

Event Time Altitude Azimuth Distance (km) Brightness Sun altitude
Rises 00:24:48 0° 327° (NNW) 3,301 13.8 -33.9°
Reaches altitude 10° 00:27:34 10° 339° (NNW) 2,370 12.8 -34.1°
Enters shadow 00:31:24 27° 22° (NNE) 1,487 11.2 -34.4°
